Weather History for Wolf Point, MT

Change the Weather History Date:

Friday, May 24, 2013

  Actual Average Record
Temperature  
Mean Temperature 57 °F -  
Max Temperature 70 °F 71 °F 82 °F (2006)
Min Temperature 44 °F 42 °F 27 °F (2002)
Degree Days  
Heating Degree Days 8    
Cooling Degree Days 0    
Growing Degree Days 10 (Base 50)    
Moisture  
Dew Point 42 °F    
Average Humidity 55    
Maximum Humidity 77    
Minimum Humidity 27    
Precipitation  
Precipitation T in 0.06 in 0.33 in (2008)
Month to date precipitation 0.44 1.15  
Year to date precipitation 1.42 3.07  
Sea Level Pressure  
Sea Level Pressure 29.88 in    
Wind  
Wind Speed 13 mph (SSE)    
Max Wind Speed 21 mph    
Max Gust Speed 28 mph    
Visibility 10 miles    
Events Rain    
T = Trace of Precipitation, MM = Missing Value Source: NWS Daily Summary

Daily Weather History Graph

Daily Weather History Graph

Search for Another Location

Airport:

Trip Planner

Search our weather history database for the weather conditions in past years. The results will help you decide how hot, cold, wet, or windy it might be!

Date:

Astronomy

May. 24, 2013 Rise Set
Actual Time 5:12 AM MDT 8:46 PM MDT
Civil Twilight 4:34 AM MDT 9:25 PM MDT
Nautical Twilight 3:42 AM MDT 10:17 PM MDT
Astronomical Twilight 2:32 AM MDT 11:28 PM MDT
Moon 8:29 PM MDT (5/24) 4:51 AM MDT (5/24)
Length of Visible Light 16h 51m
Length of Day
15h 33m
Full, 100% of the Moon is Illuminated
May 24
Full
May 24
Full
May 31
Last Quarter
Jun 8
New
Jun 16
First Quarter

Hourly Weather History & Observations

Time (MDT) Temp. Windchill Dew Point Humidity Pressure Visibility Wind Dir Wind Speed Gust Speed Precip Events Conditions
12:53 AM 60.1 °F - 42.1 °F 51% 29.88 in 10.0 mi East 16.1 mph 25.3 mph N/A   Overcast
1:53 AM 59.0 °F - 43.0 °F 55% 29.87 in 10.0 mi East 15.0 mph 24.2 mph N/A   Overcast
2:53 AM 57.9 °F - 44.1 °F 60% 29.83 in 10.0 mi East 19.6 mph 24.2 mph N/A   Overcast
3:53 AM 57.9 °F - 44.1 °F 60% 29.80 in 10.0 mi ESE 20.7 mph 26.5 mph N/A   Overcast
4:53 AM 57.0 °F - 44.1 °F 62% 29.80 in 10.0 mi East 15.0 mph 23.0 mph N/A   Overcast
5:53 AM 57.0 °F - 44.1 °F 62% 29.78 in 10.0 mi East 13.8 mph - N/A   Overcast
6:53 AM 57.0 °F - 45.0 °F 64% 29.79 in 10.0 mi East 9.2 mph - N/A   Overcast
7:53 AM 57.9 °F - 45.0 °F 62% 29.80 in 10.0 mi ESE 6.9 mph 16.1 mph N/A   Overcast
8:53 AM 57.9 °F - 46.0 °F 65% 29.81 in 10.0 mi ESE 6.9 mph - N/A   Overcast
9:53 AM 57.0 °F - 48.9 °F 74% 29.82 in 8.0 mi Variable 5.8 mph - N/A   Overcast
10:23 AM 55.4 °F - 48.2 °F 77% 29.84 in 9.0 mi West 15.0 mph 27.6 mph 0.00 in Rain Light Rain
10:30 AM 55.4 °F - 48.2 °F 77% 29.85 in 10.0 mi WSW 15.0 mph 20.7 mph 0.00 in Rain Light Rain
10:53 AM 55.0 °F - 46.9 °F 74% 29.85 in 10.0 mi West 10.4 mph - 0.00 in   Overcast
11:53 AM 61.0 °F - 48.0 °F 62% 29.85 in 10.0 mi WNW 10.4 mph 19.6 mph N/A   Mostly Cloudy
12:53 PM 66.0 °F - 45.0 °F 47% 29.87 in 10.0 mi West 17.3 mph 23.0 mph N/A   Scattered Clouds
1:53 PM 68.0 °F - 43.0 °F 40% 29.88 in 10.0 mi WSW 17.3 mph 25.3 mph N/A   Partly Cloudy
2:53 PM 66.9 °F - 42.1 °F 40% 29.90 in 10.0 mi WSW 13.8 mph 21.9 mph N/A   Scattered Clouds
3:53 PM 66.9 °F - 39.9 °F 37% 29.91 in 10.0 mi WSW 10.4 mph 20.7 mph N/A   Scattered Clouds
4:53 PM 69.1 °F - 39.9 °F 35% 29.91 in 10.0 mi West 9.2 mph 17.3 mph N/A   Clear
5:53 PM 70.0 °F - 34.0 °F 27% 29.91 in 10.0 mi West 13.8 mph - N/A   Partly Cloudy
6:53 PM 69.1 °F - 34.0 °F 27% 29.93 in 10.0 mi WSW 4.6 mph - N/A   Clear
7:53 PM 66.9 °F - 35.1 °F 31% 29.94 in 10.0 mi Calm Calm - N/A   Clear
8:53 PM 57.0 °F - 37.0 °F 47% 29.96 in 10.0 mi Calm Calm - N/A   Clear
9:53 PM 52.0 °F - 37.9 °F 59% 29.99 in 10.0 mi ENE 8.1 mph - N/A   Clear
10:53 PM 50.0 °F - 39.0 °F 66% 29.99 in 10.0 mi ENE 9.2 mph - N/A   Clear
11:53 PM 46.0 °F 43.1 °F 37.9 °F 73% 29.99 in 10.0 mi ENE 5.8 mph - N/A   Clear